Location: Bernadets
(43.3537°N, 0.3167°E)
Time: 08:18:02
(UTC+00:00)

CSL-04 Rocket - Pass Details

Date: 24 October 2021
Orbit: 805 x 860 km, 98.9° (Epoch: 02 December)

Event Time Altitude Azimuth Distance (km) Brightness Sun altitude
Exits shadow 18:56:01 44° 102° (ESE) 1,177 4.0 -21.5°
Maximum altitude 18:57:02 49° 69° (ENE) 1,097 3.9 -21.7°
Drops below altitude 10° 19:02:23 10° 356° (N) 2,508 6.2 -22.6°
Sets 19:04:50 0° 352° (N) 3,447 7.1 -23.1°
